Regional Weather Roundup
Issued by NWS

Home | Current Version | Previous Version | Graphics & Text | Print | Product List | Glossary On
Versions: 1 2 3 4 5 6 7 8 9 10 11 12 13 14 15 16 17 18 19 20 21 22 23 24 25 26 27 28 29 30 31 32 33 34 35 36 37 38 39 40 41 42 43 44 45 46 47 48 49 50
000
ASUS43 KLMK 251402
RWRKY
KENTUCKY REGIONAL WEATHER ROUNDUP
NATIONAL WEATHER SERVICE LOUISVILLE KY
1000 AM EDT WED APR 25 2018

NOTE "FAIR" INDICATES FEW OR NO CLOUDS BELOW 12,000 FEET
WITH NO SIGNIFICANT WEATHER AND/OR OBSTRUCTIONS TO VISIBILITY.

KYZ001>023-026-027-061>063-070>075-251500-
WESTERN AND SOUTH CENTRAL KENTUCKY

CITY           SKY/WX    TMP DP  RH WIND       PRES   REMARKS
PADUCAH        FAIR      63  56  78 E3        30.01R
HENDERSON      NOT AVBL
OWENSBORO      FAIR      57  54  89 N8        30.02S FOG
HOPKINSVILLE   FAIR      58  58 100 N5        30.01S
BOWLING GREEN  CLOUDY    58  54  86 N6        30.00F
GLASGOW        NOT AVBL
$$

KYZ024-025-028>034-038-045-046-053-251500-
NORTH CENTRAL KENTUCKY

CITY           SKY/WX    TMP DP  RH WIND       PRES   REMARKS
LOUISVILLE/SDF CLOUDY    58  52  80 NW9       29.98S
LOUISVILLE/LOU CLOUDY    57  53  86 NW8       29.99R
FORT KNOX      CLOUDY    55  53  92 NW9       30.00R
$$

KYZ035>037-039>044-047>052-055>060-089>105-251500-
NORTHEAST KENTUCKY

CITY           SKY/WX    TMP DP  RH WIND       PRES   REMARKS
LEXINGTON      CLOUDY    54  51  90 NW8       29.95S
COVINGTON      CLOUDY    54  50  86 NW14      29.95R
FRANKFORT      CLOUDY    55  49  80 NW9       29.95R
$$

KYZ054-064>069-076>088-106>120-251500-
SOUTHEAST KENTUCKY

CITY           SKY/WX    TMP DP  RH WIND       PRES   REMARKS
JACKSON        LGT RAIN  53  52  96 NW7       29.91S FOG
LONDON         CLOUDY    53  52  96 NW6       29.94S
SOMERSET       NOT AVBL
MIDDLESBORO    LGT RAIN  56  53  89 W5        29.93S
MONTICELLO     NOT AVBL
$$





USA.gov is the U.S. government's official web portal to all federal, state and local government web resources and services.